Regional Weather Roundup
Issued by NWS

Home | Current Version | Previous Version | Graphics & Text | Print | Product List | Glossary On
Versions: 1 2 3 4 5 6 7 8 9 10 11 12 13 14 15 16 17 18 19 20 21 22 23 24 25 26 27 28 29 30 31 32 33 34 35 36 37 38 39 40 41 42 43 44 45 46 47 48 49 50
000
ASUS44 KMEG 052310
RWRTN
TENNESSEE HOURLY STATE WEATHER ROUNDUP
NATIONAL WEATHER SERVICE MEMPHIS TN
600 PM CDT SUN JUL 05 2015

TNZ002-004-019-021-049-052-054-088>092-060000-
WEST TENNESSEE

CITY           SKY/WX    TMP DP  RH WIND       PRES   REMARKS
MEMPHIS INTL   PTSUNNY   83  69  62 SW5       30.04S
NWS MEMPHIS      N/A     84 N/A N/A MISG        N/A
JACKSON        MOSUNNY   83  71  67 SW7       30.03F
DYERSBURG        N/A    N/A N/A N/A MISG        N/A
PARIS          MOSUNNY   84  70  61 CALM      30.04S
LEXINGTON      MOSUNNY   81  70  69 SW8       30.04S
$$

TNZ008-025-027-028-033-062-065-066-060000-
NORTH MIDDLE TENNESSEE

CITY           SKY/WX    TMP DP  RH WIND       PRES   REMARKS
NASHVILLE      PTSUNNY   83  69  62 W3        30.05S
CLARKSVILLE    SUNNY     83  64  52 W6        30.03S
SMYRNA         MOSUNNY   83  73  71 SE5       30.05F
COOKEVILLE     SUNNY     82  72  69 W3        30.08R
CROSSVILLE     MOSUNNY   76  63  64 W10       30.12S
$$

TNZ061-075-076-078-094-096-097-060000-
SOUTH MIDDLE TENNESSEE

CITY           SKY/WX    TMP DP  RH WIND       PRES   REMARKS
FAYETTEVILLE   SUNNY     79  66  65 W7        30.07F
TULLAHOMA      MOSUNNY   81  68  65 W8        30.09S
WINCHESTER     SUNNY     81  70  69 SW3       30.08S
MCMINNVILLE    SUNNY     81  72  74 CALM      30.08S
COLUMBIA       CLOUDY    81  72  74 SW7       30.04F
SHELBYVILLE    PTSUNNY   82  73  74 SW7         N/A
$$

TNZ017-018-042-046-047-060000-
NORTHEAST TENNESSEE

CITY           SKY/WX    TMP DP  RH WIND       PRES   REMARKS
TRI CITIES     CLOUDY    72  69  90 S5        30.07S
ELIZABETHTON   CLOUDY    66  66 100 CALM      30.08F
$$

TNZ012-013-036-069-073-074-060000-
CENTRAL EAST TENNESSEE

CITY           SKY/WX    TMP DP  RH WIND       PRES   REMARKS
KNOXVILLE      CLOUDY    72  66  81 SW13      30.07R
OAK RIDGE      CLOUDY    75  68  78 CALM      30.08S
GATLINBURG     PTCLDY    79  64  61 SW7       30.05S
MORRISTOWN       N/A     72  68  88 SW12      30.07R
$$

TNZ083-085-099-060000-
SOUTHEAST TENNESSEE

CITY           SKY/WX    TMP DP  RH WIND       PRES   REMARKS
CHATTANOOGA    PTSUNNY   82  67  60 SW12      30.07S
$$

SKY/WX REPORTED AS FAIR MEANS FEW OR NO CLOUDS BELOW
12 THOUSAND FEET.



USA.gov is the U.S. government's official web portal to all federal, state and local government web resources and services.